DateTimeUTC,F1_A11,F1_S11,BsB_S11,BsG_S11,BsR_S11,BbsB_S11,BbsG_S11,BbsR_S11,BaB_A11,BaG_A11,BaR_A11,Tu_S11,T_S11,Uu_S11,U_S11,P_S11,T1_A11
2021-05-03T12:00:00Z,00000200,21000000,,,,,,,0000.19,0000.47,0000.30,19.9,26.5,,00.0,0680.6,31.2
2021-05-03T12:01:00Z,00000200,21000000,,,,,,,-000.28,-000.37,-000.07,19.9,26.5,,00.0,0680.6,31.2
2021-05-03T12:02:00Z,00000200,21000000,,,,,,,0000.20,-000.07,0000.21,19.9,26.5,,00.0,0680.6,31.2
2021-05-03T12:03:00Z,00000200,61000000,,,,,,,0001.13,0001.22,0000.50,19.9,26.6,,00.0,0680.6,31.2
2021-05-03T12:04:00Z,00000200,41000000,0003.81,0002.94,0001.67,0000.83,0000.44,0000.59,0001.82,0001.40,0001.15,20.1,26.5,,00.0,0681.6,31.2
2021-05-03T12:05:00Z,00000200,01000000,0003.85,0002.77,0001.82,0000.56,0000.66,0000.45,0001.90,0001.80,0001.55,20.1,26.4,,00.0,0681.6,31.2
2021-05-03T12:06:00Z,00000200,01000000,0004.41,0002.86,0001.77,0000.90,0000.47,0000.56,0001.59,0001.54,0001.08,20.1,26.4,,00.0,0681.6,31.2
2021-05-03T12:07:00Z,00000200,01000000,0003.72,0002.90,0001.96,0000.86,0000.35,0000.51,0001.65,0001.90,0001.05,20.2,26.4,,00.0,0681.6,31.2
2021-05-03T12:08:00Z,00000200,01000000,0004.54,0002.90,0001.30,0001.22,0000.45,0000.31,0001.44,0001.14,0000.90,20.1,26.5,,00.0,0681.6,31.2
2021-05-03T12:09:00Z,00000200,01000000,0003.86,0002.79,0001.93,0000.70,0000.33,0000.12,0001.74,0001.15,0001.03,20.2,26.5,,00.0,0681.6,31.3
2021-05-03T12:10:00Z,00000200,01000000,0004.40,0002.96,0001.48,0000.42,0000.76,0000.33,0001.51,0001.64,0000.89,20.2,26.5,,00.0,0681.6,31.2
2021-05-03T12:11:00Z,00000200,01000000,0003.18,0002.85,0001.63,0000.78,0000.54,0000.32,0001.69,0001.29,0001.23,20.2,26.5,,00.0,0681.6,31.3
2021-05-03T12:12:00Z,00000200,01000000,0003.70,0002.68,0001.48,0000.33,0000.53,0000.33,0001.70,0001.54,0000.88,20.2,26.5,,00.0,0681.6,31.2
2021-05-03T12:13:00Z,00000200,01000000,0004.15,0002.84,0001.76,0000.75,0000.37,0000.36,0001.43,0001.43,0001.17,20.2,26.5,,00.0,0681.6,31.2
2021-05-03T12:14:00Z,00000200,01010000,0004.07,0002.90,0001.47,0000.75,0000.47,0000.61,0001.42,0001.42,0000.94,20.3,26.5,,00.0,0681.6,31.3
2021-05-03T12:15:00Z,00000200,01000000,0003.60,0003.05,0001.50,0000.61,0000.35,0000.42,0001.76,0001.28,0000.83,20.3,26.5,,00.0,0681.6,31.2
2021-05-03T12:16:00Z,00000200,01000000,0004.01,0002.75,0001.71,0000.48,0000.66,0000.28,0001.28,0001.42,0001.42,20.3,26.6,,00.0,0681.6,31.2
2021-05-03T12:17:00Z,00000200,01000000,0002.84,0002.77,0001.75,0000.66,0000.61,0000.61,0001.60,0001.48,0000.98,20.3,26.6,,00.0,0681.6,31.3
2021-05-03T12:18:00Z,00000200,01000000,0004.01,0002.57,0001.58,0000.75,0000.37,0000.56,0001.88,0001.43,0001.33,20.3,26.6,,00.0,0681.6,31.2
2021-05-03T12:19:00Z,00000200,01000000,0004.30,0002.81,0001.45,0000.42,0000.57,0000.25,0001.68,0001.28,0000.55,20.3,26.6,,00.0,0681.6,31.3
2021-05-03T12:20:00Z,00000200,01000000,0003.48,0002.39,0001.64,0000.35,0000.30,0000.09,0001.62,0001.30,0001.21,20.4,26.6,,00.0,0681.6,31.3
2021-05-03T12:21:00Z,00000200,01000000,0003.88,0002.71,0001.61,0000.61,0000.48,0000.34,0001.49,0001.75,0001.11,20.4,26.6,,00.0,0681.6,31.3
2021-05-03T12:22:00Z,00000200,01000000,0003.58,0002.80,0001.32,0000.54,0000.47,0000.31,0001.26,0001.07,0000.54,20.4,26.6,,00.0,0681.5,31.2
2021-05-03T12:23:00Z,00000200,01000000,0003.82,0002.81,0001.76,0000.27,0000.29,0000.45,0001.74,0001.29,0001.16,20.4,26.7,,00.0,0681.6,31.3
2021-05-03T12:24:00Z,00000200,01000000,0003.95,0002.50,0001.78,0000.79,0000.37,0000.38,0001.32,0001.35,0000.87,20.5,26.7,,00.0,0681.6,31.3
2021-05-03T12:25:00Z,00000200,01000000,0003.77,0002.54,0001.57,0000.63,0000.20,0000.21,0001.25,0001.01,0000.84,20.5,26.7,,00.0,0681.6,31.3
2021-05-03T12:26:00Z,00000200,01000000,0003.68,0002.63,0001.43,0000.15,0000.32,0000.43,0001.58,0001.34,0000.96,20.5,26.7,,00.0,0681.6,31.3
2021-05-03T12:27:00Z,00000200,01000000,0004.25,0002.83,0001.65,0000.42,0000.38,0000.21,0001.76,0001.79,0001.13,20.5,26.7,,00.0,0681.6,31.3
2021-05-03T12:28:00Z,00000200,01000000,0003.62,0002.74,0001.73,0000.95,0000.37,0000.33,0001.18,0001.33,0001.10,20.5,26.8,,00.0,0681.6,31.3
2021-05-03T12:29:00Z,00000200,01000000,0003.78,0002.97,0001.71,0000.49,0000.48,0000.53,0001.67,0001.78,0001.22,20.6,26.8,,00.0,0681.6,31.3
2021-05-03T12:30:00Z,00000200,01000000,0004.00,0002.94,0001.55,0000.36,0000.42,0000.60,0001.66,0001.36,0000.95,20.6,26.8,,00.0,0681.6,31.3
2021-05-03T12:31:00Z,00000200,01000000,0003.87,0002.67,0001.57,0000.85,0000.25,0000.29,0001.65,0001.14,0001.22,20.6,26.8,,00.0,0681.6,31.3
2021-05-03T12:32:00Z,00000200,01000000,0004.09,0002.77,0001.60,0000.99,0000.29,0000.17,0001.73,0001.45,0000.78,20.6,26.8,,00.0,0681.6,31.3
2021-05-03T12:33:00Z,00000200,01000000,0003.98,0002.62,0001.73,0000.48,0000.33,0000.55,0001.56,0001.42,0001.07,20.7,26.8,,00.0,0681.6,31.3
2021-05-03T12:34:00Z,00000200,01000000,0003.70,0002.86,0001.97,0000.82,0000.50,0000.17,0001.06,0001.41,0001.03,20.7,26.9,,00.0,0681.6,31.3
2021-05-03T12:35:00Z,00000200,01000000,0003.24,0002.87,0001.74,0000.96,0000.42,0000.40,0001.97,0001.63,0000.82,20.7,26.9,,00.0,0681.6,31.3
2021-05-03T12:36:00Z,00000200,01000000,0003.67,0002.45,0001.85,0000.85,0000.33,0000.51,0001.66,0001.57,0001.47,20.7,26.9,,00.0,0681.6,31.3
2021-05-03T12:37:00Z,00000200,01000000,0004.36,0003.11,0002.31,0000.14,0000.50,0000.50,0001.61,0001.17,0001.08,20.8,26.9,,00.0,0681.6,31.3
2021-05-03T12:38:00Z,00000200,01000000,0004.29,0002.60,0001.95,0000.88,0000.42,0000.53,0001.51,0001.51,0000.86,20.8,26.9,,00.0,0681.6,31.3
2021-05-03T12:39:00Z,00000200,01000000,0004.06,0002.93,0001.77,0000.78,0000.42,0000.36,0001.61,0001.27,0000.93,20.8,26.9,,00.0,0681.6,31.3
2021-05-03T12:40:00Z,00000200,01000000,0004.13,0002.70,0001.72,0000.55,0000.33,0000.23,0001.63,0001.63,0001.36,20.8,27.0,,00.0,0681.6,31.3
2021-05-03T12:41:00Z,00000200,01000000,0003.79,0002.80,0001.64,0001.14,0000.56,0000.59,0001.86,0001.32,0000.97,20.8,27.0,,00.0,0681.6,31.3
2021-05-03T12:42:00Z,00000200,01000000,0004.45,0002.77,0001.67,0000.56,0000.51,0000.46,0001.84,0001.81,0001.31,20.9,27.0,,00.0,0681.6,31.3
2021-05-03T12:43:00Z,00000200,01000000,0003.45,0003.00,0001.70,0000.68,0000.69,0000.37,0001.64,0001.26,0000.88,20.9,27.0,,00.0,0681.6,31.3
2021-05-03T12:44:00Z,00000200,01000000,0004.32,0002.63,0001.72,0000.91,0000.52,0000.49,0001.68,0001.81,0001.05,20.9,27.0,,00.0,0681.6,31.3
2021-05-03T12:45:00Z,00000200,01000000,0003.74,0002.84,0001.44,0000.97,0000.66,0000.40,0001.75,0001.37,0001.71,20.9,27.1,,00.0,0681.6,31.3
2021-05-03T12:46:00Z,00000200,01000000,0004.03,0002.70,0001.79,0000.66,0000.42,0000.50,0001.45,0001.51,0000.52,20.9,27.1,,00.0,0681.6,31.3
2021-05-03T12:47:00Z,00000200,01000000,0004.47,0002.98,0001.30,0000.42,0000.44,0000.35,0001.74,0001.33,0001.12,21.0,27.1,,00.0,0681.6,31.3
2021-05-03T12:48:00Z,00000200,01000000,0003.60,0002.68,0001.64,0000.81,0000.54,0000.24,0001.13,0001.34,0000.86,21.0,27.1,,00.0,0681.6,31.3
2021-05-03T12:49:00Z,00000200,01000000,0003.97,0003.18,0001.74,0000.37,0000.74,0000.52,0002.36,0001.49,0001.56,21.0,27.1,,00.0,0681.6,31.3
2021-05-03T12:50:00Z,00000200,01000000,0004.12,0002.68,0001.76,0000.91,0000.24,0000.49,0001.55,0001.77,0001.07,21.0,27.1,,00.0,0681.6,31.3
2021-05-03T12:51:00Z,00000200,01000000,0003.63,0002.48,0001.75,0000.30,0000.66,0000.21,0001.51,0001.17,0000.90,21.0,27.1,,00.0,0681.5,31.3
2021-05-03T12:52:00Z,00000200,01000000,0003.29,0002.76,0001.54,0000.68,0000.37,0000.38,0001.31,0001.48,0001.23,21.1,27.1,,00.0,0681.5,31.3
2021-05-03T12:53:00Z,00000200,01000000,0003.43,0002.48,0001.50,0001.02,0000.50,0000.34,0001.53,0001.41,0000.57,21.1,27.2,,00.0,0681.5,31.3
2021-05-03T12:54:00Z,00000200,01000000,0002.84,0002.13,0001.28,0000.69,0000.41,0000.55,0001.64,0000.95,0000.98,21.1,27.2,,00.0,0681.5,31.3
2021-05-03T12:55:00Z,00000200,01000000,0003.64,0002.58,0001.44,0000.50,0000.50,0000.02,0001.68,0001.93,0001.17,21.1,27.2,,00.0,0681.5,31.3
2021-05-03T12:56:00Z,00000200,01000000,0003.96,0002.50,0001.61,0000.76,0000.53,0000.40,0001.48,0001.39,0001.22,21.1,27.2,,00.0,0681.5,31.3
2021-05-03T12:57:00Z,00000200,41000000,,,,,,,0000.58,0000.47,0000.12,21.2,27.2,,00.0,0681.6,31.3
2021-05-03T12:58:00Z,00000200,61000000,,,,,,,0000.25,0000.15,0000.33,21.1,27.3,,00.0,0680.5,31.3
2021-05-03T12:59:00Z,00000200,21000000,,,,,,,-000.19,-000.01,-000.10,21.1,27.4,,00.0,0680.5,31.4
